When you browse on this site, cookies collect data to enhance your experience and personalize the content and advertising you see.
Visit our Privacy Policy to learn more. By continuing to use the site, you agree to this use of cookies and data.
  • In Romania
  • List of Countries
  • For 7 days
  • Water Temperature
  • Satellite Maps
  • Weather Map
  • Weather Widgets
  • user-avatar
    Login

    Hourly Weather Suhaya Vyazovka

    Today, 22 May, Wednesday

    Time Temperature Precipitation Wind Pressure Humidity
    00:00 +9°C° 0 mm 3 mps 760 mmHg 62%
    01:00 +9°C° 0 mm 3 mps 760 mmHg 64%
    02:00 +9°C° 0 mm 3 mps 760 mmHg 66%
    03:00 +8°C° 0 mm 2 mps 759 mmHg 67%
    04:00 +9°C° 0 mm 2 mps 759 mmHg 67%
    05:00 +12°C° 0 mm 2 mps 759 mmHg 67%
    06:00 +13°C° 0 mm 2 mps 759 mmHg 67%
    07:00 +14°C° 0 mm 2 mps 759 mmHg 64%
    08:00 +15°C° 0 mm 2 mps 758 mmHg 61%
    09:00 +18°C° 0 mm 1 mps 758 mmHg 58%
    10:00 +16°C° 0.3 mm 2 mps 758 mmHg 63%
    11:00 +16°C° 0.3 mm 2 mps 758 mmHg 67%
    12:00 +15°C° 0.3 mm 2 mps 758 mmHg 72%
    13:00 +17°C° 0.1 mm 2 mps 757 mmHg 67%
    14:00 +18°C° 0.1 mm 2 mps 757 mmHg 63%
    15:00 +20°C° 0.1 mm 3 mps 757 mmHg 58%
    16:00 +19°C° 0.3 mm 3 mps 756 mmHg 65%
    17:00 +19°C° 0.3 mm 4 mps 756 mmHg 71%
    18:00 +17°C° 0.3 mm 5 mps 756 mmHg 78%
    19:00 +17°C° 0.1 mm 4 mps 756 mmHg 81%
    20:00 +15°C° 0.1 mm 4 mps 755 mmHg 83%
    21:00 +14°C° 0.1 mm 3 mps 755 mmHg 86%
    22:00 +14°C° 0.4 mm 3 mps 755 mmHg 88%
    23:00 +14°C° 0.4 mm 3 mps 755 mmHg 90%

    Tomorrow, 23 May, Thursday

    Time Temperature Precipitation Wind Pressure Humidity
    00:00 +14°C° 0.4 mm 3 mps 754 mmHg 91%
    01:00 +13°C° 0 mm 3 mps 754 mmHg 91%
    02:00 +13°C° 0 mm 4 mps 754 mmHg 90%
    03:00 +13°C° 0 mm 4 mps 754 mmHg 89%
    04:00 +14°C° 0.1 mm 4 mps 754 mmHg 86%
    05:00 +15°C° 0.1 mm 4 mps 754 mmHg 82%
    06:00 +16°C° 0.1 mm 5 mps 754 mmHg 79%
    07:00 +17°C° 0 mm 5 mps 753 mmHg 70%
    08:00 +20°C° 0 mm 6 mps 753 mmHg 61%
    09:00 +21°C° 0 mm 6 mps 753 mmHg 53%
    10:00 +22°C° 0 mm 7 mps 753 mmHg 49%
    11:00 +23°C° 0 mm 7 mps 753 mmHg 46%
    12:00 +23°C° 0 mm 8 mps 752 mmHg 43%
    13:00 +23°C° 0 mm 7 mps 752 mmHg 43%
    14:00 +23°C° 0 mm 7 mps 752 mmHg 43%
    15:00 +23°C° 0 mm 7 mps 751 mmHg 43%
    16:00 +22°C° 0 mm 6 mps 751 mmHg 46%
    17:00 +21°C° 0 mm 6 mps 750 mmHg 49%
    18:00 +20°C° 0 mm 5 mps 750 mmHg 53%
    19:00 +19°C° 0 mm 4 mps 750 mmHg 55%
    20:00 +17°C° 0 mm 4 mps 750 mmHg 58%
    21:00 +15°C° 0 mm 4 mps 749 mmHg 61%
    22:00 +15°C° 0 mm 4 mps 749 mmHg 63%
    23:00 +14°C° 0 mm 5 mps 749 mmHg 64%

    Day after tomorrow, 24 May, Friday

    Time Temperature Precipitation Wind Pressure Humidity
    00:00 +14°C° 0 mm 5 mps 749 mmHg 66%
    01:00 +14°C° 0 mm 5 mps 749 mmHg 68%
    02:00 +14°C° 0 mm 5 mps 748 mmHg 70%
    03:00 +14°C° 0 mm 5 mps 748 mmHg 72%
    04:00 +14°C° 0.2 mm 5 mps 748 mmHg 73%
    05:00 +14°C° 0.2 mm 5 mps 748 mmHg 75%
    06:00 +15°C° 0.2 mm 6 mps 748 mmHg 77%
    07:00 +15°C° 0.3 mm 5 mps 749 mmHg 81%
    08:00 +15°C° 0.3 mm 5 mps 749 mmHg 84%
    09:00 +15°C° 0.3 mm 4 mps 749 mmHg 88%
    10:00 +17°C° 0.1 mm 4 mps 750 mmHg 81%
    11:00 +16°C° 0.1 mm 5 mps 750 mmHg 75%
    12:00 +17°C° 0.1 mm 5 mps 751 mmHg 68%
    13:00 +17°C° 0 mm 5 mps 751 mmHg 65%
    14:00 +17°C° 0 mm 5 mps 752 mmHg 62%
    15:00 +17°C° 0 mm 5 mps 752 mmHg 59%
    16:00 +17°C° 0 mm 5 mps 753 mmHg 60%
    17:00 +16°C° 0 mm 5 mps 753 mmHg 60%
    18:00 +15°C° 0 mm 4 mps 754 mmHg 61%
    19:00 +14°C° 0 mm 4 mps 754 mmHg 64%
    20:00 +12°C° 0 mm 4 mps 755 mmHg 66%
    21:00 +11°C° 0 mm 3 mps 756 mmHg 69%
    22:00 +10°C° 0 mm 3 mps 756 mmHg 69%
    23:00 +9°C° 0 mm 3 mps 757 mmHg 70%

    25 May, Saturday

    Time Temperature Precipitation Wind Pressure Humidity
    00:00 +8°C° 0 mm 3 mps 757 mmHg 70%
    01:00 +8°C° 0 mm 3 mps 758 mmHg 71%
    02:00 +7°C° 0 mm 2 mps 758 mmHg 71%
    03:00 +7°C° 0 mm 2 mps 758 mmHg 71%
    04:00 +7°C° 0 mm 3 mps 759 mmHg 68%
    05:00 +8°C° 0 mm 3 mps 759 mmHg 65%
    06:00 +9°C° 0 mm 3 mps 759 mmHg 61%
    07:00 +11°C° 0 mm 3 mps 760 mmHg 56%
    08:00 +12°C° 0 mm 3 mps 760 mmHg 50%
    09:00 +14°C° 0 mm 3 mps 760 mmHg 45%
    10:00 +16°C° 0 mm 3 mps 760 mmHg 43%
    11:00 +16°C° 0 mm 3 mps 760 mmHg 41%
    12:00 +17°C° 0 mm 3 mps 759 mmHg 39%
    13:00 +18°C° 0 mm 3 mps 759 mmHg 39%
    14:00 +19°C° 0 mm 3 mps 759 mmHg 39%
    15:00 +19°C° 0 mm 3 mps 759 mmHg 38%
    16:00 +19°C° 0 mm 3 mps 759 mmHg 43%
    17:00 +18°C° 0 mm 3 mps 758 mmHg 47%
    18:00 +18°C° 0 mm 3 mps 758 mmHg 52%
    19:00 +16°C° 0 mm 3 mps 758 mmHg 55%
    20:00 +14°C° 0 mm 4 mps 758 mmHg 58%
    21:00 +12°C° 0 mm 4 mps 758 mmHg 60%
    22:00 +12°C° 0 mm 4 mps 758 mmHg 58%
    23:00 +12°C° 0 mm 5 mps 758 mmHg 56%

    26 May, Sunday

    Time Temperature Precipitation Wind Pressure Humidity
    00:00 +12°C° 0 mm 5 mps 758 mmHg 53%
    01:00 +12°C° 0.1 mm 5 mps 757 mmHg 55%
    02:00 +12°C° 0.1 mm 5 mps 757 mmHg 58%
    03:00 +10°C° 0.1 mm 5 mps 757 mmHg 60%
    04:00 +12°C° 0 mm 5 mps 757 mmHg 59%
    05:00 +12°C° 0 mm 5 mps 757 mmHg 59%
    06:00 +11°C° 0 mm 6 mps 756 mmHg 58%
    07:00 +14°C° 0.1 mm 6 mps 756 mmHg 58%
    08:00 +15°C° 0.1 mm 6 mps 755 mmHg 57%
    09:00 +16°C° 0.1 mm 7 mps 755 mmHg 57%
    10:00 +18°C° 0 mm 7 mps 754 mmHg 57%
    11:00 +20°C° 0 mm 7 mps 754 mmHg 57%
    12:00 +21°C° 0 mm 7 mps 754 mmHg 57%
    13:00 +21°C° 0.1 mm 7 mps 753 mmHg 61%
    14:00 +20°C° 0.1 mm 7 mps 753 mmHg 65%
    15:00 +20°C° 0.1 mm 6 mps 753 mmHg 70%
    16:00 +20°C° 0 mm 6 mps 752 mmHg 72%
    17:00 +20°C° 0 mm 6 mps 752 mmHg 74%
    18:00 +20°C° 0 mm 6 mps 752 mmHg 76%
    19:00 +19°C° 0.5 mm 6 mps 752 mmHg 78%
    20:00 +17°C° 0.5 mm 6 mps 751 mmHg 81%
    21:00 +17°C° 0.5 mm 5 mps 751 mmHg 83%
    22:00 +16°C° 0.3 mm 6 mps 751 mmHg 84%
    23:00 +16°C° 0.3 mm 6 mps 751 mmHg 85%

    27 May, Monday

    Time Temperature Precipitation Wind Pressure Humidity
    00:00 +16°C° 0.3 mm 6 mps 750 mmHg 86%
    01:00 +16°C° 0 mm 5 mps 751 mmHg 88%
    02:00 +15°C° 0 mm 5 mps 751 mmHg 90%
    03:00 +15°C° 0 mm 4 mps 751 mmHg 93%
    04:00 +15°C° 0.2 mm 4 mps 751 mmHg 92%
    05:00 +17°C° 0.2 mm 4 mps 751 mmHg 90%
    06:00 +16°C° 0.2 mm 5 mps 751 mmHg 89%
    07:00 +19°C° 0 mm 5 mps 751 mmHg 81%
    08:00 +21°C° 0 mm 6 mps 751 mmHg 74%
    09:00 +23°C° 0 mm 7 mps 751 mmHg 67%
    10:00 +24°C° 0.4 mm 7 mps 751 mmHg 64%
    11:00 +24°C° 0.4 mm 7 mps 751 mmHg 61%
    12:00 +26°C° 0.4 mm 7 mps 751 mmHg 58%
    13:00 +26°C° 1.3 mm 7 mps 751 mmHg 60%
    14:00 +24°C° 1.3 mm 7 mps 751 mmHg 63%
    15:00 +24°C° 1.3 mm 7 mps 751 mmHg 65%
    16:00 +24°C° 0.3 mm 6 mps 751 mmHg 66%
    17:00 +25°C° 0.3 mm 5 mps 751 mmHg 68%
    18:00 +23°C° 0.3 mm 4 mps 752 mmHg 69%
    19:00 +22°C° 0 mm 4 mps 752 mmHg 71%
    20:00 +20°C° 0 mm 4 mps 752 mmHg 73%
    21:00 +18°C° 0 mm 4 mps 752 mmHg 75%
    22:00 +18°C° 0 mm 4 mps 753 mmHg 79%
    23:00 +17°C° 0 mm 5 mps 753 mmHg 82%
    Show more